Location: Unspecified
(41.1637°N, 24.2901°E)
Time: 01:31:33
(UTC+01:00)

ISS - Pass Details

Date: 13 January 2026
Orbit: 413 x 424 km, 51.6° (Epoch: 16 January)

Event Time Altitude Azimuth Distance (km) Brightness Sun altitude
Rises 18:35:56 0° 259° (W) 2,344 1.4 -25.7°
Reaches altitude 10° 18:38:11 10° 271° (W) 1,485 0.0 -26.1°
Enters shadow 18:39:53 23° 294° (WNW) 947 -1.4 -26.5°
